Starlink 32245

operational
NORAD ID: 62133 Int'l Des: 2024-222 Owner: SPXS Country: US Constellation: starlink
LEOCIRCULAR

关于 Starlink 32245

正在加载描述...

实时位置

正在加载3D地球...

即将过境

高度历史

Altitude vs Time

uPlot chart will show altitude changes over time

两行轨道根数

1 62133U 24222V 25258.68517554 .00025034 00000-0 91534-3 0 9999
2 62133 42.9999 44.5689 0001632 282.0683 77.9986 15.27609544 46140
Epoch: Sep 15, 2025 • Age: 15 hours

当前状态

高度 492.3 km
速度 7.62 km/s
星下点 -35.36°S, 160.63°E
发射日期 Nov 27, 2024
运行时间 0.8 years
类型 internet

技术详情

分类 Payload
质量 730.00 kg
干质量 700.00 kg
总质量 730.00 kg
长度 0.30 m
直径 4.10 m
跨度 29.00 m
形状 Box + pan
制造商 SPXS
平台类型 Starlink V2M
阶段状态 In Orbit
所有者/国家 SPXS/US

大型星座

Loading constellations...